Погода в Ереване

Погода в Ереване : погода сейчас, прогноз погоды и архив. Всё, что Вы хотите узнать о погоде в Ереване!

Поиск расширенной информации на нашем сайте:

Другие новости

Новости СМИ2

Главная страница сайта

Новости сайта

03.07.2017

Напоминаем, что на нашем специализированном сайте Метеоцентр.Азия вы можете получить высокодетализированные автоматические прогнозы погоды по пунктам России, СНГ и мира в авиационном формате (включающие направление и скорость ветра, видимость, явления погоды, количество и форму облачности, нижнюю и верхнюю границу облачности).

Рекомендуем: Порекомендовали элькарнитин цена и я похудела на 10 кг!

Погода в Ереване - сегодня

Время (UTC), дата Ветер
(°,м/с) 
Видим.   Явления Облачность Т
(°С)
Тd
(°С)
f(%) Тe
(°С)
Pmin
(гПа)
dP
(гПа)
Po
(мм)
O2
(г/м3)
Тmin Tmax R s Состояние
почвы
12 15.06.18 200 (Ю) 20000 м    9/4 1000 м кучево-дожд., средняя, верхняя 
[Cb cap|Ac cuf|Cc]
+30.6 +10.3 29 +34  1001.5  -1  683  246           
15 15.06.18 050 (СВ) 20000 м    5/1 1000 м средняя, верхняя 
[Sc diur, vesp|Ac cuf|Cc]
+28.6 +9.9 31 +32  1001.9  -0.3  683  247           
18 15.06.18 250 (З) 20000 м  зарница  3/1 1000 м кучево-дожд., средняя 
[Cb cap|Ac trans]
+24.2 +9.8 40 +27  1014.3  1.4  684  251    +32.1       
21 15.06.18 290 (З) 10 км  {гроза, ливн. осадки}  8/3 1000 м средняя 
[Sc diur, vesp|Ac trans]
+21.6 +12.6 57 +29  1007.5  1.8  685  253           
00 16.06.18 тихо ()   10 км    3/0 средняя 
[Ac trans]
+18.8 +12.7 68 +26  1007.1  -1.2  685  255           
03 16.06.18 тихо ()   20000 м    8/0 средняя 
[Ac As]
+18.8 +14.7 77 +29  1007.2  0.2  685  255           
06 16.06.18 180 (Ю) 20000 м    10/0 
[Frnb]
+22.4 +14.1 59 +32  1006.3  0.2  685  252  +17.5    0.0     
09 16.06.18 070 (В) 20000 м    8/3 1000 м кучево-дожд., средняя 
[Cb cap|Ac trans]
+25.4 +14.5 51 +36  1004.2  -0.9  684  249           
12 16.06.18 220 (ЮЗ) 20000 м    8/4 1000 м кучево-дожд., средняя, верхняя 
[Cb cap|Ac cast|Ci ing]
+28 +10.3 33 +31  1002.5  -1  683  248           
15 16.06.18 270 (З) 20000 м    8/3 1000 м кучево-дожд., средняя 
[Cb cap|Ac cast]
+25 +8 34 +25  1004.8  1.2  684  251           
18 16.06.18 тихо ()   20000 м    6/0 средняя 
[Ac trans]
+19.2 +13.2 68 +27  1008  1.2  685  255    +29.5       
21 16.06.18 350 (С) 20000 м    3/0 средняя 
[Ac trans]
+17.4 +12.2 72 +25  1009  0.4  686  257           
00 17.06.18 тихо ()   20000 м    3/0 средняя 
[Ac trans]
+15.2 +11.3 78 +20  1009.8  686  259           
03 17.06.18 190 (Ю) 20000 м    ясно 
+16.9 +12.4 75 +25  1009.3  0.1  686  258           
06 17.06.18 180 (Ю) 20000 м    ясно 
+23.8 +13.9 54 +33  1006.5  -0.4  685  251  +14         
09 17.06.18 200 (Ю) 20000 м    5/3 1000 м средняя 
[Cu med, cong|Ac cast]
+28.5 +12.7 38 +36  1003.4  -1.4  684  247           
12 17.06.18 340 (С) 20000 м  в посл. час гроза{ливн. осадки}  6/4 1000 м кучево-дожд., средняя 
[Cb cap|Ac cast]
+30 +9 27 +32  1001.6  -1.4  683  246           
15 17.06.18 020 (С) 20000 м    5/3 1000 м кучево-дожд., средняя 
[Cb cap|Ac cast]
+29.5 +10.2 30 +33  1000.1  -1.5  682  246           
18 17.06.18 040 (СВ) 20000 м    3/3 1000 м кучево-дожд. 
[Cb cap]
+22.4 +8.5 41 +23  1002.9  0.5  682  253    +30.9       
21 17.06.18 040 (СВ) 20000 м    3/3 1000 м средняя 
[Sc|Ac trans]
+22.8 +9.8 44 +26  1002.6  -0.2  682  252           
00 18.06.18 360 (С) 20000 м    4/0 средняя 
[Ac trans]
+20.5 +8.2 45 +21  1003.9  0.6  683  254           
03 18.06.18 200 (Ю) 20000 м    ясно 
+18.8 +10.9 60 +24  1004.5  683  255           
06 18.06.18 070 (В) 20000 м    1/1 1000 м 
[Cu hum]
+25.7 +10.7 39 +30  1001.9  -1  682  249  +16.5         
09 18.06.18 260 (З) 20000 м    3/3 1000 м 
[Cu med, cong]
+29.4 +9.9 30 +32    -1.1  682  246           
12 18.06.18 220 (ЮЗ) 20000 м    3/3 1000 м 
[Cu med, cong]
+32.4 +4.6 17 +32  996.3  -1.6  680  244           
Время (UTC), дата Ветер
(°,м/с) 
Видим.   Явления Облачность Т
(°С)
Тd
(°С)
f(%) Тe
(°С)
Pmin
(гПа)
dP
(гПа)
Po
(мм)
O2
(г/м3)
Тmin Tmax R s Состояние
почвы

Для получения пояснительной информации подведите курсор к названию столбца.

ПОГОДА в Ереване - архив

Всё, что Вы хотите узнать о погоде в Ереване - удобно и подробно!

Выберите нужную дату (начиная с 1 января 2015* года) и нажмите кнопку "Найти".
Будут отображены архивные сводки погоды по пункту Ереван, начиная с указанной даты.


Отображать данные в формате CSV (для использования в таблицах Excel)


Внимание! Наш архив погоды предназначен исключительно для личного некоммерческого использования в познавательных целях. Если Вам необходимы официальные справки о состоянии погоды (для производственных, юридических, коммерческих и т.п. целей), обращайтесь в органы Росгидромета.

*Примечание: данная дата относится к архиву по метеостанциям СССР (Россия, СНГ, Балтия).
Архив по метеостанциям Зарубежной Европы и Азии (кроме Китая) хранится 10 дней, по другим регионам земного шара (Китай, Африка, Америка, Австралия, Океания) - 1 день.

Ереван - район местоположения метеостанции


Название, широта, долгота, высота метеостанции:
Ереван (Звартноц) 40.1°ш. 44.4°д. 865 м над ур. моря [Армения]

Дополнительная информация

В oтличие oт бoльшинства пoгoдных сайтoв мы публикуем пoдрoбную метеoинфoрмацию в детальнoм прoфессиoнальнoм фoрмате.

Характеристики температуры и влажнoсти вoздуха измеряются на высoте 2 м в тени вдали oт зданий и деревьев.
Скoрoсть ветра измеряется на высoте 10 м (на урoвне рoста челoвека скoрoсть ветра ниже в 1.5-2 раза). Если метеoстанция нахoдится в гoрoде или в лесу, тo скoрoсть ветра занижена на 2-4 м/с пo сравнению с oткрытым местoм. Скoрoсть ветра над акватoриями крупных рек и oзёр, а также на вершинах хoлмoв на 2-5 м/с выше, чем в oбычных услoвиях.
Атмoсфернoе давление в разных тoчках местнoсти мoжет значительнo oтличаться oт давления на метеoстанции, в зависимoсти oт услoвий рельефа (при пoдъёме на 10 м давление пoнижается примернo на 1 мм рт.ст.).